Regional Weather Roundup
Issued by NWS

Home | Current Version | Previous Version | Graphics & Text | Print | Product List | Glossary On
Versions: 1 2 3 4 5 6 7 8 9 10 11 12 13 14 15 16 17 18 19 20 21 22 23 24 25 26 27 28 29 30 31 32 33 34 35 36 37 38 39 40 41 42 43 44 45 46 47 48 49 50
000
ASUS45 KCYS 250710
RWRWY

WYOMING REGIONAL WEATHER ROUNDUP
NATIONAL WEATHER SERVICE CHEYENNE WY
1200 AM MST TUE NOV 25 2014

NOTE:  "FAIR" INDICATES FEW OR NO CLOUDS BELOW 12,000 FEET
WITH NO SIGNIFICANT WEATHER AND/OR OBSTRUCTIONS TO VISIBILITY.

WYZ001-250800-
YELLOWSTONE NATIONAL PARK

CITY           SKY/WX    TMP DP  RH WIND       PRES   REMARKS
LK YELLOWSTONE   N/A     20  15  81 VRB3      30.16F
W YELLOWSTONE  NOT AVBL

$$
WYZ002>013-054>058-071-098>099-250800-
NORTHERN WYOMING

CITY           SKY/WX    TMP DP  RH WIND       PRES   REMARKS
JACKSON        CLOUDY    25  19  80 S16       30.23F WCI  12
CODY           CLOUDY    36  14  41 W24G38    29.98F WCI  24
GREYBULL       CLOUDY    24  18  77 S7        30.06F WCI  16
WORLAND        MOCLDY    19  13  77 S5        30.07F WCI  12
SHERIDAN       MOCLDY    26  14  60 SW6       29.97F WCI  19
BUFFALO        MOCLDY    27   9  46 S8        29.99F WCI  19
GILLETTE       PTCLDY    26  18  71 SW14      30.00F WCI  14
HULETT         FAIR      28  23  80 SW10      30.01  WCI  19
NEWCASTLE      FAIR      23  21  93 N7        30.06F WCI  15

$$
WYZ014>020-022>026-101>103-250800-
CENTRAL WYOMING

CITY           SKY/WX    TMP DP  RH WIND       PRES   REMARKS
BIG PINEY      PTCLDY    28   6  39 NW7       30.25F WCI  21
PINEDALE       MOSUNNY   12  10  92 W8        30.24S WCI   1
DUBOIS         FAIR      23  10  58 NW21G35   30.08S WCI   8
LANDER         PTCLDY    20   6  55 N6        30.07F WCI  12
RIVERTON       PTCLDY    28  10  46 W22       30.08F WCI  14
CASPER         PTCLDY    23  11  60 SW17      30.08F WCI   9
DOUGLAS        CLEAR    N/A N/A N/A CALM      30.10F

$$
WYZ021-027>030-104>119-250800-
SOUTHERN WYOMING

CITY           SKY/WX    TMP DP  RH WIND       PRES   REMARKS
EVANSTON       CLOUDY    16  12  84 SW14      30.33F WCI   2
FORT BRIDGER   FAIR      22  11  62 SW14G21   30.32F WCI  10
ROCK SPRINGS   PTCLDY    21  13  71 W31       30.25F WCI   2
DIXON          PTSUNNY    5   1  84 E3        30.34S
RAWLINS        PTCLDY    18  10  71 W22       30.17F WCI   1
SARATOGA       FAIR      21  12  68 W18G25    30.21F WCI   6
LARAMIE        CLEAR     18   8  65 W13       30.11S WCI   5
CHEYENNE       CLEAR     14   7  73 NW8       30.11F WCI   3
TORRINGTON     CLEAR     22  17  81 W6        30.13F WCI  14
PINE BLUFFS    FAIR      16  10  79 W7        30.15F WCI   6

$$



USA.gov is the U.S. government's official web portal to all federal, state and local government web resources and services.